Location: Spring Creek
(38.2870°N, 100.2160°W)
Time: 23:51:55
(UTC+00:00)

Cosmos 2184 Rocket - Pass Details

Date: 08 May 2021
Orbit: 958 x 1003 km, 82.9° (Epoch: 21 June)

Event Time Altitude Azimuth Distance (km) Brightness Sun altitude
Rises 04:04:24 0° 0° (N) 3,683 7.8 -24.0°
Reaches altitude 10° 04:07:07 10° 8° (N) 2,725 6.9 -24.3°
Maximum altitude 04:12:57 41° 77° (ENE) 1,378 4.5 -25.0°
Enters shadow 04:13:19 40° 86° (E) 1,385 4.5 -25.1°
